San Angelo, TX

2:42 PM CDT on July 25, 2017 (GMT -0500)
San Angelo Regional-Mathis

Weather History for KSJT - September, 2012

Change the Weather History Date:

Thursday, September 13, 2012

  Actual Average Record
Temperature  
Mean Temperature 72 °F 76 °F  
Max Temperature 83 °F 89 °F 103 °F (1930)
Min Temperature 61 °F 64 °F 51 °F (1940)
Degree Days  
Heating Degree Days 0 0  
Month to date heating degree days 0 0  
Since 1 July heating degree days 0 0  
Cooling Degree Days 7 12  
Month to date cooling degree days 247 175  
Year to date cooling degree days 2879 2211  
Growing Degree Days 19 (Base 50)    
Moisture  
Dew Point 61 °F    
Average Humidity 67    
Maximum Humidity 87    
Minimum Humidity 47    
Precipitation  
Precipitation 1.02 in 0.08 in 1.32 in (1989)
Month to date precipitation 1.02 1.17  
Year to date precipitation 15.40 15.24  
Sea Level Pressure  
Sea Level Pressure 30.13 in    
Wind  
Wind Speed 12 mph (North)    
Max Wind Speed 21 mph    
Max Gust Speed 24 mph    
Visibility 8 miles    
Events Rain , Thunderstorm    
T = Trace of Precipitation, MM = Missing Value Source: NWS Daily Summary

Daily Weather History Graph

Daily Weather History Graph

Search for Another Location

Airport or City:

Trip Planner

Search our weather history database for the weather conditions in past years. The results will help you decide how hot, cold, wet, or windy it might be!

Date:

Astronomy

Sep. 13, 2012 Rise Set
Actual Time 7:25 AM CDT 7:49 PM CDT
Civil Twilight 7:00 AM CDT 8:13 PM CDT
Nautical Twilight 6:32 AM CDT 8:42 PM CDT
Astronomical Twilight 6:03 AM CDT 9:11 PM CDT
Moon 4:54 AM CDT (9/13) 6:08 PM CDT (9/13)
Length of Visible Light 13h 13m
Length of Day
12h 24m
Waning Crescent, 7% of the Moon is Illuminated
Sep 13
Waning Crescent
Sep 15
New
Sep 22
First Quarter
Sep 29
Full
Oct 8
Last Quarter

Hourly Weather History & Observations

Time (CDT) Temp. Heat Index Dew Point Humidity Pressure Visibility Wind Dir Wind Speed Gust Speed Precip Events Conditions
12:51 AM 82.9 °F 83.2 °F 60.1 °F 46% 29.91 in 10.0 mi SSE 12.7 mph - N/A   Clear
1:51 AM 82.0 °F 83.0 °F 62.1 °F 51% 29.91 in 10.0 mi South 11.5 mph - N/A   Clear
2:51 AM 81.0 °F 82.2 °F 63.0 °F 54% 29.92 in 10.0 mi SSE 11.5 mph - N/A   Clear
3:51 AM 80.1 °F 81.9 °F 64.9 °F 60% 29.92 in 10.0 mi South 11.5 mph 20.7 mph N/A   Clear
4:51 AM 79.0 °F - 64.9 °F 62% 29.93 in 10.0 mi South 10.4 mph - N/A   Clear
5:51 AM 78.1 °F - 64.9 °F 64% 29.96 in 10.0 mi South 6.9 mph - N/A   Clear
6:51 AM 79.0 °F - 66.9 °F 66% 30.00 in 10.0 mi NNW 12.7 mph - N/A   Overcast
7:51 AM 71.1 °F - 60.1 °F 68% 30.04 in 10.0 mi NNW 12.7 mph - N/A   Overcast
8:51 AM 69.1 °F - 61.0 °F 75% 30.06 in 10.0 mi NNE 12.7 mph - N/A   Overcast
9:10 AM 69.8 °F - 60.8 °F 73% 30.13 in 10.0 mi NNE 10.4 mph - N/A   Overcast
9:51 AM 70.0 °F - 61.0 °F 73% 30.09 in 10.0 mi ENE 9.2 mph - N/A   Unknown
10:51 AM 70.0 °F - 64.0 °F 81% 30.11 in 10.0 mi NE 12.7 mph - N/A   Overcast
11:34 AM 69.8 °F - 62.6 °F 78% 30.18 in 10.0 mi North 11.5 mph - N/A   Overcast
11:51 AM 69.1 °F - 62.1 °F 78% 30.13 in 10.0 mi NNE 11.5 mph 17.3 mph 0.01 in   Overcast
12:21 PM 69.8 °F - 60.8 °F 73% 30.21 in 10.0 mi NNE 11.5 mph - 0.00 in Rain , Thunderstorm Light Rain
12:39 PM 68.0 °F - 62.6 °F 83% 30.22 in 2.0 mi NW 13.8 mph - 0.08 in Rain , Thunderstorm Heavy Rain
12:48 PM 66.2 °F - 62.6 °F 88% 30.22 in 1.0 mi NNW 18.4 mph - 0.24 in Rain , Thunderstorm Heavy Rain
12:51 PM 66.0 °F - 62.1 °F 87% 30.16 in 0.8 mi NNW 20.7 mph - 0.30 in Rain , Thunderstorm Heavy Rain
12:57 PM 66.2 °F - 62.6 °F 88% 30.21 in 1.0 mi NNW 17.3 mph - 0.12 in Rain , Thunderstorm Heavy Rain
1:02 PM 66.2 °F - 62.6 °F 88% 30.22 in 1.5 mi NNW 17.3 mph - 0.16 in Rain , Thunderstorm Heavy Rain
1:08 PM 66.2 °F - 62.6 °F 88% 30.21 in 3.0 mi NNW 13.8 mph - 0.18 in Rain , Thunderstorm Rain
1:30 PM 66.2 °F - 62.6 °F 88% 30.20 in 2.0 mi North 6.9 mph - 0.28 in Rain , Thunderstorm Heavy Rain
1:43 PM 66.2 °F - 62.6 °F 88% 30.19 in 5.0 mi NNE 11.5 mph - 0.31 in Rain , Thunderstorm Light Rain
1:51 PM 66.0 °F - 62.1 °F 87% 30.14 in 5.0 mi NE 11.5 mph - 0.34 in Rain , Thunderstorm Rain
2:18 PM 66.2 °F - 62.6 °F 88% 30.18 in 5.0 mi NNE 12.7 mph - 0.08 in Rain , Thunderstorm Rain
2:51 PM 66.0 °F - 62.1 °F 87% 30.12 in 6.0 mi NNE 10.4 mph - 0.16 in Rain , Thunderstorm Rain
3:26 PM 66.2 °F - 62.6 °F 88% 30.15 in 9.0 mi NNE 10.4 mph - 0.09 in Rain , Thunderstorm Light Rain
3:51 PM 66.0 °F - 61.0 °F 84% 30.10 in 7.0 mi North 9.2 mph - 0.12 in Rain , Thunderstorm Light Rain
4:51 PM 64.9 °F - 61.0 °F 87% 30.10 in 10.0 mi North 9.2 mph - 0.09 in Rain , Thunderstorm Light Rain
5:51 PM 64.9 °F - 60.1 °F 84% 30.12 in 10.0 mi North 16.1 mph - 0.00 in   Overcast
6:49 PM 64.4 °F - 59.0 °F 83% 30.19 in 10.0 mi North 18.4 mph 23.0 mph N/A   Overcast
6:51 PM 64.0 °F - 59.0 °F 84% 30.14 in 10.0 mi North 17.3 mph - N/A   Overcast
7:07 PM 64.4 °F - 59.0 °F 83% 30.20 in 10.0 mi North 15.0 mph - N/A   Overcast
7:51 PM 64.0 °F - 57.9 °F 80% 30.19 in 10.0 mi NNE 15.0 mph - N/A   Overcast
8:51 PM 64.0 °F - 57.9 °F 80% 30.22 in 10.0 mi NNE 9.2 mph - N/A   Overcast
9:51 PM 62.1 °F - 57.9 °F 86% 30.25 in 10.0 mi NNE 8.1 mph - N/A   Overcast
10:17 PM 62.6 °F - 57.2 °F 82% 30.28 in 10.0 mi NNE 10.4 mph - N/A   Overcast
10:32 PM 62.6 °F - 57.2 °F 82% 30.28 in 10.0 mi North 12.7 mph - N/A   Overcast
10:43 PM 60.8 °F - 57.2 °F 88% 30.28 in 10.0 mi North 12.7 mph - N/A   Overcast
10:51 PM 62.1 °F - 55.9 °F 80% 30.25 in 10.0 mi North 17.3 mph - N/A   Overcast
11:33 PM 62.6 °F - 55.4 °F 77% 30.28 in 10.0 mi North 12.7 mph - N/A   Overcast
11:43 PM 62.6 °F - 55.4 °F 77% 30.27 in 10.0 mi NNW 11.5 mph - N/A   Overcast
11:51 PM 63.0 °F - 55.9 °F 78% 30.24 in 10.0 mi NNW 12.7 mph - N/A   Overcast